User: anonymous   Login
Location: Cincinnati Observatory Center
(39.1389°N, 84.4225°W)
Time: 23:39:39
(UTC-04:00)
Language:

JAS-1B - Orbit

View from above orbital plane
View from above orbital plane
View from above satellite
View from above satellite

Ground track
Ground track

The orbit data is extracted from the following two-line orbital elements,

1 20480U 90013C   16122.57861794 -.00000037  00000-0 -47786-5 0  9995
2 20480  99.0256 327.6885 0539454 243.9215 183.1495 12.83410780228920
Epoch (UTC): 01 May 2016 13:53:12
Eccentricity: 0.0539454
inclination: 99.0256°
perigee height: 912 km
apogee height: 1743 km
right ascension of ascending node: 327.6885°
argument of perigee: 243.9215°
revolutions per day: 12.83410780
mean anomaly at epoch: 183.1495°
orbit number at epoch: 22892

The dashed part of the orbit path shows where the satellite is in the earth's shadow,  

DLR